MDT,Max TemperatureF,Mean TemperatureF,Min TemperatureF,Max Dew PointF,MeanDew PointF,Min DewpointF,Max Humidity, Mean Humidity, Min Humidity, Max Sea Level PressureIn, Mean Sea Level PressureIn, Min Sea Level PressureIn, Max VisibilityMiles, Mean VisibilityMiles, Min VisibilityMiles, Max Wind SpeedMPH, Mean Wind SpeedMPH, Max Gust SpeedMPH,PrecipitationIn, CloudCover, Events, WindDirDegrees
2012-10-1,71,52,32,41,34,29,100,61,22,30.33,30.15,29.87,10,10,10,24,7,30,0.00,0,,191
2012-10-2,81,61,41,30,28,26,53,34,14,29.84,29.73,29.64,10,10,10,18,9,23,0.00,0,,299
2012-10-3,55,44,32,37,33,29,100,73,46,30.44,30.13,29.65,10,8,2,30,16,37,0.03,6,Snow,331
2012-10-4,44,36,28,31,28,24,100,75,49,30.45,30.39,30.32,10,10,6,17,6,22,0.01,7,Snow,9
2012-10-5,39,34,29,34,30,27,100,82,64,30.42,30.34,30.29,10,5,0,16,3,18,0.12,8,Fog-Snow,3
2012-10-6,39,30,20,30,24,15,100,69,37,30.48,30.36,30.18,10,9,2,15,6,18,T,5,Snow,338
2012-10-7,56,43,29,29,25,15,64,48,32,30.21,30.06,29.88,10,10,10,21,12,25,0.00,2,,252
2012-10-8,54,45,36,40,33,25,89,64,39,29.98,29.90,29.84,10,10,9,18,11,21,0.07,5,Rain,321
2012-10-9,49,39,28,36,32,26,100,71,42,30.19,30.08,29.99,10,9,3,21,11,25,0.04,6,Snow,323
2012-10-10,68,53,37,34,29,25,70,45,20,30.12,29.96,29.83,10,10,10,24,11,30,0.00,0,,260
2012-10-11,49,42,34,34,32,28,89,73,56,30.25,30.16,29.99,10,10,10,26,11,32,0.00,4,,57
2012-10-12,79,56,33,41,33,27,82,50,17,30.13,29.85,29.64,10,10,10,32,18,39,0.00,0,,178
2012-10-13,67,52,36,40,33,28,82,53,24,30.09,29.86,29.65,10,10,10,22,10,25,0.00,3,,300
2012-10-14,66,52,38,36,32,28,82,54,26,30.15,30.06,29.92,10,10,10,26,12,31,0.00,1,,270
2012-10-15,74,56,38,40,29,22,79,47,14,29.91,29.79,29.68,10,10,10,31,9,38,0.00,2,,248
2012-10-16,67,54,41,46,38,25,86,59,31,29.79,29.55,29.31,10,10,5,37,13,47,0.24,4,Rain,250
2012-10-17,47,41,34,26,23,20,59,48,37,30.03,29.84,29.61,10,10,10,40,24,48,0.00,3,,312
2012-10-18,50,38,25,20,15,9,68,43,18,30.19,30.12,30.04,10,10,10,40,19,47,0.00,0,,302
2012-10-19,68,50,31,31,25,18,57,38,19,30.08,29.84,29.64,10,10,10,14,6,17,0.00,0,,214
2012-10-20,75,57,38,37,31,27,76,46,16,29.66,29.57,29.44,10,10,10,25,11,29,0.00,0,,288
2012-10-21,46,43,40,40,36,34,100,85,70,29.92,29.87,29.70,10,10,9,23,8,30,0.00,7,,50
2012-10-22,49,46,42,44,40,36,92,79,65,29.86,29.74,29.59,10,10,8,37,20,46,0.05,4,Rain,163
2012-10-23,46,41,36,43,40,36,100,92,83,29.89,29.76,29.58,10,8,2,20,6,23,0.33,7,Rain,37
2012-10-24,38,30,22,38,30,20,100,93,85,30.21,30.00,29.85,10,7,0,15,7,17,T,7,Fog-Snow,358
2012-10-25,27,23,19,25,23,18,100,91,81,30.50,30.27,30.12,10,10,6,16,8,21,0.00,8,,349
2012-10-26,40,28,15,24,19,13,100,69,37,30.53,30.37,30.15,10,10,10,15,5,17,0.00,3,,228
2012-10-27,47,34,20,27,22,17,96,64,31,30.18,30.13,30.06,10,10,10,12,4,15,0.00,5,,210
2012-10-28,61,46,30,34,29,24,82,57,32,30.07,29.97,29.86,10,10,10,17,9,23,0.00,4,,184
2012-10-29,67,49,31,38,34,28,89,61,32,30.04,29.96,29.89,10,10,10,14,4,20,0.00,3,,188
2012-10-30,63,46,29,38,34,28,92,64,35,30.12,30.04,29.97,10,10,10,15,4,17,0.00,0,,179
2012-10-31,69,55,40,34,31,28,70,47,24,30.06,30.00,29.92,10,10,10,18,6,22,0.00,0,,214